Location: Epalinges
(46.5518°N, 6.6683°E)
Time: 18:29:53
(UTC+00:00)

S3M - Pass Details

Date: 20 June 2021
Orbit: 950 x 1004 km, 83.0° (Epoch: 30 July)

Event Time Altitude Azimuth Distance (km) Brightness Sun altitude
Rises 02:07:58 0° 352° (N) 3,641 7.8 -11.9°
Reaches altitude 10° 02:10:28 10° 353° (N) 2,696 7.0 -11.7°
Maximum altitude 02:16:39 80° 81° (E) 982 4.1 -11.0°
Drops below altitude 10° 02:22:52 10° 169° (S) 2,709 6.0 -10.4°
Sets 02:25:23 0° 170° (S) 3,661 6.6 -10.1°
